Regional Weather Roundup
Issued by NWS Sioux Falls, SD

Home | Current Version | Previous Version | Graphics & Text | Print | Product List | Glossary Off
Versions: 1 2 3 4 5 6 7 8 9 10 11 12 13 14 15 16 17 18 19 20 21 22 23 24 25 26 27 28 29 30 31 32 33 34 35 36 37 38 39 40 41 42 43 44 45 46 47 48 49 50

000
ASUS43 KFSD 252210
RWRFSD

WEATHER ROUNDUP FOR SE SOUTH DAKOTA/SW MINNESOTA/NW IOWA
NATIONAL WEATHER SERVICE SIOUX FALLS SD
500 PM CDT SAT OCT 25 2014

NOTE: "FAIR" INDICATES FEW OR NO CLOUDS BELOW 12,000 FEET WITH NO
SIGNIFICANT WEATHER AND OR OBSTRUCTIONS TO VISIBILITY.


SDZ038>040-050-052>070-252300-
SOUTHEAST SOUTH DAKOTA

CITY           SKY/WX    TMP DP  RH WIND       PRES   REMARKS
CHAMBERLAIN    SUNNY     67  28  23 E8        30.06F
HURON          SUNNY     67  28  23 E3        30.08F
MADISON        FAIR      64  28  25 NE5       30.10S
MITCHELL       SUNNY     69  32  25 NE5       30.08F
SIOUX FALLS    SUNNY     66  41  40 NE5       30.09S
WINNER         FAIR      70  29  21 SE9       30.05F
YANKTON        SUNNY     68  36  30 E6        30.07F
$$

MNZ071-072-080-081-089-090-097-098-252300-
SOUTHWEST MINNESOTA

CITY           SKY/WX    TMP DP  RH WIND       PRES   REMARKS
FAIRMONT       SUNNY     66  -8   5 NW15      30.08S
JACKSON        SUNNY     64  25  22 NW7       30.10S
LUVERNE        SUNNY     68  28  22 N3        30.10R
MARSHALL       SUNNY     63  28  27 N10       30.09S
MONTEVIDEO     SUNNY     64  30  27 N8        30.10S
PIPESTONE      SUNNY     64  27  24 CALM      30.09F
REDWOOD FALLS  SUNNY     64  28  25 NW13      30.08F
TRACY          SUNNY     64  31  29 N8        30.10S
WINDOM         SUNNY     64  28  25 NW9       30.10S
WORTHINGTON    SUNNY     63  28  27 N7        30.10S
$$

IAZ001>003-012>014-020>022-031-032-NEZ013-014-SDZ071-252300-
NORTHWEST IOWA

CITY           SKY/WX    TMP DP  RH WIND       PRES   REMARKS
CHEROKEE       SUNNY     66  36  33 NE5       30.08F
DENISON        SUNNY     68  37  32 NE6       30.06S
ESTHERVILLE    SUNNY     65  28  24 N10       30.08S
LE MARS        SUNNY     68  36  30 VRB6      30.09S
ORANGE CITY    SUNNY     70  27  19 CALM      30.09S
SHELDON        SUNNY     68  30  24 CALM      30.09R
SIOUX CITY     SUNNY     71  36  27 NE5       30.07F
SPENCER        SUNNY     67  32  27 N7        30.09S
STORM LAKE     SUNNY     66  34  30 N6        30.09F
$$

ABBREVIATIONS USED IN REMARKS
   TC - TEMPERATURE IN CELSIUS
  WCI - WIND CHILL INDEX
   HX - HEAT INDEX
  VSB - VISIBILITY




USA.gov is the U.S. government's official web portal to all federal, state and local government web resources and services.